Weather History for Joplin, MO

Change the Weather History Date:

Saturday, August 3, 2013

  Actual Average Record
Temperature  
Mean Temperature 79 °F 81 °F  
Max Temperature 89 °F 92 °F 105 °F (2011)
Min Temperature 69 °F 70 °F 53 °F (1950)
Degree Days  
Heating Degree Days 0 0  
Month to date heating degree days 0 0  
Since 1 June heating degree days 12 5  
Since 1 July heating degree days 0 0  
Cooling Degree Days 14 16  
Month to date cooling degree days 41 48  
Year to date cooling degree days 916 1019  
Since 1 June cooling degree days 772 839  
Growing Degree Days 28 (Base 50)    
Moisture  
Dew Point 71 °F    
Average Humidity 75    
Maximum Humidity 90    
Minimum Humidity 59    
Precipitation  
Precipitation 0.59 in 0.10 in 1.60 in (1990)
Month to date precipitation 0.60 0.29  
Year to date precipitation 31.46 27.91  
Snow  
Snow 0.00 in - - ()
Month to date snowfall 0.0  
Since 1 June snowfall 0.0  
Since 1 July snowfall 0.0  
Snow Depth 0.00 in    
Sea Level Pressure  
Sea Level Pressure 30.00 in    
Wind  
Wind Speed 7 mph (ENE)    
Max Wind Speed 31 mph    
Max Gust Speed 44 mph    
Visibility 8 miles    
Events Rain , Thunderstorm    
T = Trace of Precipitation, MM = Missing Value Source: NWS Daily Summary

Daily Weather History Graph

Daily Weather History Graph

Search for Another Location

Airport:

Trip Planner

Search our weather history database for the weather conditions in past years. The results will help you decide how hot, cold, wet, or windy it might be!

Date:

Astronomy

Aug. 03, 2013 Rise Set
Actual Time 6:24 AM CDT 8:22 PM CDT
Civil Twilight 5:56 AM CDT 8:51 PM CDT
Nautical Twilight 5:21 AM CDT 9:26 PM CDT
Astronomical Twilight 4:43 AM CDT 10:03 PM CDT
Moon 3:35 AM CDT (8/3) 6:05 PM CDT (8/3)
Length of Visible Light 14h 55m
Length of Day
13h 58m
Waning Crescent, 9% of the Moon is Illuminated
Aug 3
Waning Crescent
Aug 6
New
Aug 14
First Quarter
Aug 20
Full
Aug 28
Last Quarter

Hourly Weather History & Observations

Time (CDT) Temp. Heat Index Dew Point Humidity Pressure Visibility Wind Dir Wind Speed Gust Speed Precip Events Conditions
12:53 AM 77.0 °F - 73.9 °F 90% 29.89 in 8.0 mi ESE 4.6 mph - N/A   Clear
1:53 AM 77.0 °F - 73.9 °F 90% 29.87 in 7.0 mi SE 3.5 mph - N/A   Clear
2:53 AM 77.0 °F - 73.9 °F 90% 29.87 in 7.0 mi South 3.5 mph - N/A   Scattered Clouds
3:45 AM 77.0 °F - 75.2 °F 94% 29.95 in 7.0 mi WNW 12.7 mph - N/A Thunderstorm Overcast
3:53 AM 77.0 °F - 75.0 °F 94% 29.93 in 7.0 mi NW 15.0 mph 21.9 mph 0.00 in Rain , Thunderstorm Light Rain
4:00 AM 75.2 °F - 71.6 °F 89% 29.98 in 9.0 mi NW 27.6 mph 35.7 mph 0.00 in Rain , Thunderstorm Light Rain
4:08 AM 73.4 °F - 69.8 °F 88% 29.98 in 10.0 mi NNW 23.0 mph 35.7 mph 0.00 in Rain , Thunderstorm Light Rain
4:19 AM 71.6 °F - 69.8 °F 94% 30.01 in 5.0 mi NNW 31.1 mph 43.7 mph 0.06 in Rain , Thunderstorm Light Thunderstorms and Rain
4:27 AM 69.8 °F - 68.0 °F 94% 30.00 in 2.5 mi NNW 20.7 mph 43.7 mph 0.15 in Rain , Thunderstorm Heavy Thunderstorms and Rain
4:31 AM 69.8 °F - 68.0 °F 94% 29.99 in 1.8 mi North 18.4 mph 35.7 mph 0.23 in Rain , Thunderstorm Heavy Thunderstorms and Rain
4:36 AM 69.8 °F - 68.0 °F 94% 29.98 in 2.0 mi North 21.9 mph 28.8 mph 0.25 in Rain , Thunderstorm Heavy Thunderstorms and Rain
4:44 AM 69.8 °F - 68.0 °F 94% 29.97 in 9.0 mi North 16.1 mph 31.1 mph 0.25 in Rain , Thunderstorm Light Thunderstorms and Rain
4:53 AM 70.0 °F - 66.9 °F 90% 29.95 in 7.0 mi NNW 18.4 mph 26.5 mph 0.30 in Rain , Thunderstorm Heavy Thunderstorms and Rain
5:48 AM 69.8 °F - 66.2 °F 88% 30.04 in 5.0 mi SSE 9.2 mph - 0.18 in Rain , Thunderstorm Thunderstorms and Rain
5:53 AM 69.1 °F - 66.9 °F 93% 30.01 in 5.0 mi ESE 10.4 mph - 0.19 in Rain , Thunderstorm Thunderstorms and Rain
6:23 AM 69.8 °F - 66.2 °F 88% 30.02 in 8.0 mi East 9.2 mph - 0.07 in Rain Light Rain
6:53 AM 69.1 °F - 66.9 °F 93% 30.01 in 10.0 mi SE 5.8 mph - 0.08 in Rain Light Rain
7:53 AM 70.0 °F - 66.9 °F 90% 30.00 in 10.0 mi East 10.4 mph - 0.00 in   Overcast
8:53 AM 72.0 °F - 68.0 °F 87% 30.03 in 10.0 mi SSE 6.9 mph - 0.00 in   Partly Cloudy
9:53 AM 73.9 °F - 69.1 °F 85% 30.04 in 10.0 mi SSE 12.7 mph - N/A   Mostly Cloudy
10:53 AM 75.9 °F - 69.1 °F 79% 30.05 in 10.0 mi SSE 8.1 mph - 0.00 in   Overcast
11:53 AM 81.0 °F 84.9 °F 71.1 °F 72% 30.03 in 10.0 mi SE 9.2 mph - N/A   Clear
12:53 PM 86.0 °F 92.2 °F 72.0 °F 63% 30.02 in 10.0 mi SSE 5.8 mph - N/A   Clear
1:53 PM 87.1 °F 93.6 °F 72.0 °F 61% 30.01 in 10.0 mi Calm Calm - N/A   Partly Cloudy
2:53 PM 88.0 °F 93.8 °F 71.1 °F 57% 30.01 in 10.0 mi Calm Calm - N/A   Clear
3:53 PM 82.9 °F 90.8 °F 75.9 °F 79% 30.01 in 7.0 mi Variable 4.6 mph - 0.02 in Rain Rain
4:53 PM 87.1 °F 94.5 °F 73.0 °F 63% 30.01 in 7.0 mi NNE 3.5 mph - 0.00 in   Mostly Cloudy
5:53 PM 87.1 °F 96.3 °F 75.0 °F 67% 30.01 in 10.0 mi NE 4.6 mph - N/A   Clear
6:53 PM 84.0 °F 91.2 °F 73.9 °F 72% 30.01 in 10.0 mi ENE 6.9 mph - N/A   Clear
7:53 PM 81.0 °F 86.7 °F 75.0 °F 82% 30.03 in 10.0 mi Variable 5.8 mph - N/A   Scattered Clouds
8:53 PM 79.0 °F - 73.9 °F 84% 30.05 in 10.0 mi ENE 3.5 mph - N/A   Scattered Clouds
9:53 PM 78.1 °F - 73.0 °F 84% 30.06 in 10.0 mi ENE 4.6 mph - N/A   Mostly Cloudy
10:53 PM 77.0 °F - 73.0 °F 88% 30.07 in 10.0 mi ENE 4.6 mph - N/A   Clear
11:53 PM 75.9 °F - 72.0 °F 87% 30.06 in 10.0 mi East 6.9 mph - N/A   Clear